Location: Baia de Cri?
(46.1667°N, 22.7167°E)
Time: 21:28:18
(UTC+00:00)

Meteor 1-15 Rocket - Pass Details

Date: 15 January 2026
Orbit: 839 x 906 km, 81.2° (Epoch: 10 February)

Event Time Altitude Azimuth Distance (km) Brightness Sun altitude
Rises 05:22:25 0° 188° (S) 3,455 7.6 -7.9°
Reaches altitude 10° 05:24:50 10° 188° (S) 2,530 6.9 -7.5°
Maximum altitude 05:30:37 89° 97° (E) 898 4.4 -6.6°
Drops below altitude 10° 05:36:32 10° 11° (NNE) 2,586 6.6 -5.6°
Sets 05:39:01 0° 12° (NNE) 3,537 7.3 -5.2°
